[[{"header":{"parameterUnit":"m.s-1","parameterCategory":1,"la1":30.2991,"la2":30.254,"lo1":-89.0895,"lo2":-89.0444,"dy":0.0017,"dx":0.0017,"nx":28,"ny":28,"refTime":"2025-05-27T09:00:00:Z","depth":0,"parameterNumber":2,"parameterNumberName":"U-component_of_WINDS"},"data":[0,0,0,0,0,0,0,0,0,0,0,0,0,0,0,0,0,0,0,0,0,0,0,0,0,0,0,0,0,0,0,0,0,0,0,0,0,0,0,0,0,0,0,0,0,0,0,0,0,0,0,0,0,0,0,0,0,0,-0.457,-0.4568,0,-0.4444,-0.4443,-0.4441,-0.4405,-0.4406,-0.4406,-0.4407,-0.4276,-0.4272,-0.4268,0,0,0,0,0,0,0,0,0,0,0,0,0,-0.4777,-0.4774,-0.457,-0.4568,-0.4567,-0.4444,-0.4442,-0.4441,-0.4405,-0.4406,-0.4406,-0.4407,-0.4277,-0.4272,-0.4267,0,0,0,0,0,0,0,0,0,0,0,0,0,-0.4673,-0.4772,-0.457,-0.4534,-0.4529,-0.4445,-0.4442,-0.444,-0.4405,-0.4406,-0.4407,-0.4408,-0.4279,-0.4273,-0.4267,-0.4208,0,0,-0.4248,-0.4245,0,0,0,0,0,0,0,0,-0.4679,-0.4665,-0.4541,-0.4536,-0.4531,-0.4441,-0.4467,-0.4362,-0.4404,-0.4452,-0.4407,-0.4408,-0.433,-0.432,-0.4294,-0.4202,-0.4196,-0.4247,-0.4244,-0.4241,-0.4239,0,0,0,0,0,0,0,-0.4686,-0.467,-0.452,-0.4539,-0.4533,-0.4524,-0.451,-0.4447,-0.4387,-0.4448,-0.4445,-0.4431,-0.4327,-0.43,-0.429,-0.4194,-0.4247,-0.4242,-0.4238,-0.4236,-0.4047,-0.4046,0,0,0,0,0,0,-0.47,-0.4677,-0.4524,-0.4516,-0.4609,-0.4519,-0.4504,-0.4469,-0.4387,-0.4376,-0.443,-0.4429,-0.431,-0.4298,-0.4286,-0.4211,-0.4241,-0.4235,-0.4232,-0.4049,-0.4047,-0.4046,0,0,0,0,0,0,-0.4704,-0.4686,-0.4529,-0.4596,-0.4575,-0.4514,-0.4476,-0.4466,-0.4438,-0.4374,-0.4362,-0.4413,-0.431,-0.4294,-0.4228,-0.4206,-0.4232,-0.4227,-0.405,-0.4048,-0.4046,-0.4061,0,0,0,0,0,0,-0.471,-0.4688,-0.4666,-0.4595,-0.4571,-0.4474,-0.4474,-0.4463,-0.4428,-0.4426,-0.4355,-0.4344,-0.431,-0.4237,-0.4221,-0.4198,-0.4222,-0.4052,-0.4049,-0.4047,-0.4062,-0.406,-0.4058,0,0,0,0,0,-0.4718,-0.4675,-0.4665,-0.4646,-0.4542,-0.4473,-0.4459,-0.4421,-0.4426,-0.4403,-0.4361,-0.4346,-0.4211,-0.423,-0.4213,-0.4187,-0.4053,-0.405,-0.4047,-0.4063,-0.406,-0.4058,0,0,0,0,0,0,-0.4743,-0.4665,-0.4653,-0.4586,-0.4536,-0.4467,-0.4436,-0.4419,-0.4367,-0.4367,-0.4322,-0.4306,-0.4242,-0.4208,-0.4231,-0.4125,-0.4131,-0.4125,-0.415,-0.4147,-0.4145,-0.4154,-0.4217,0,0,0,0,0,-0.4741,-0.4692,-0.4626,-0.4573,-0.4548,-0.4497,-0.4465,-0.444,-0.4387,-0.4365,-0.4319,-0.4267,-0.4213,-0.4178,-0.4125,-0.4058,-0.4041,-0.4031,-0.4029,-0.4027,-0.4022,-0.3983,-0.3978,-0.4036,-0.4036,-0.4036,0,0,-0.4736,-0.4687,-0.4658,-0.4576,-0.4535,-0.4484,-0.4479,-0.4426,-0.4387,-0.4357,-0.4291,-0.4255,-0.4195,-0.4127,-0.4095,-0.4097,-0.4002,-0.4024,-0.4023,-0.4018,-0.398,-0.3974,-0.3969,-0.4034,-0.4034,-0.4035,0,0,-0.47,-0.4659,-0.461,-0.4569,-0.4506,-0.4472,-0.4461,-0.4394,-0.4369,-0.4302,-0.4278,-0.4232,-0.414,-0.4097,-0.4063,-0.4012,-0.3996,-0.3996,-0.3984,-0.3947,-0.3943,-0.3938,-0.3919,-0.3913,-0.3991,-0.3991,-0.3991,0,-0.4701,-0.4625,-0.4587,-0.4534,-0.4499,-0.447,-0.4419,-0.4381,-0.4305,-0.428,-0.4283,-0.4167,-0.4124,-0.4046,-0.4034,-0.4008,-0.3992,-0.4004,-0.3947,-0.3942,-0.3937,-0.3918,-0.3911,-0.3992,-0.3992,-0.3992,-0.3991,0,-0.4629,-0.4576,-0.4544,-0.4471,-0.4432,-0.4381,-0.4334,-0.4299,-0.4278,-0.4244,-0.4176,-0.4124,-0.4059,-0.4039,-0.4018,-0.3958,-0.396,-0.3956,-0.3961,-0.3933,-0.3914,-0.3907,-0.3992,-0.3992,-0.3992,-0.3992,0,0,-0.4605,-0.4512,-0.4501,-0.4467,-0.4397,-0.4355,-0.4302,-0.424,-0.421,-0.4158,-0.4113,-0.4036,-0.4031,-0.3993,-0.3966,-0.3934,-0.3896,-0.3933,-0.3931,-0.3927,-0.3826,-0.3829,-0.3821,-0.3885,-0.3884,-0.3882,-0.383,0,-0.4559,-0.4465,-0.4429,-0.4352,-0.4302,-0.4274,-0.4228,-0.418,-0.4146,-0.4099,-0.4061,-0.4007,-0.4005,-0.3982,-0.3949,-0.3908,-0.3875,-0.3911,-0.3841,-0.3839,-0.3856,-0.3812,-0.3815,-0.3768,-0.3823,-0.3822,-0.3821,0,-0.4494,-0.4442,-0.436,-0.4295,-0.4273,-0.4232,-0.4172,-0.4127,-0.4072,-0.4049,-0.4007,-0.3983,-0.3926,-0.3936,-0.3857,-0.3883,-0.3852,-0.3827,-0.3825,-0.3816,-0.3828,-0.3801,-0.3753,-0.3746,-0.3809,-0.381,-0.3811,0,-0.4483,-0.4393,-0.4332,-0.4304,-0.4228,-0.42,-0.4166,-0.4112,-0.4076,-0.4024,-0.4,-0.3941,-0.3909,-0.3864,-0.3824,-0.3835,-0.3748,-0.3755,-0.3727,-0.3728,-0.3709,-0.371,-0.3655,-0.3692,-0.3692,-0.3692,-0.3692,0,-0.4436,-0.4386,-0.4326,-0.4288,-0.4232,-0.4191,-0.4137,-0.4101,-0.4053,-0.4008,-0.398,-0.3938,-0.3889,-0.384,-0.3809,-0.3748,-0.3733,-0.3713,-0.3705,-0.3715,-0.3717,-0.3693,-0.3695,-0.369,-0.369,-0.3691,-0.3691,0,-0.4414,-0.4372,-0.4303,-0.4237,-0.4219,-0.418,-0.4123,-0.4085,-0.405,-0.3993,-0.3977,-0.3923,-0.3864,-0.3821,-0.3745,-0.3723,-0.3658,-0.365,-0.3677,-0.3672,-0.3647,-0.3649,-0.3572,-0.356,-0.3607,-0.3606,-0.3606,0,-0.4386,-0.4347,-0.4277,-0.4245,-0.4212,-0.416,-0.4124,-0.4083,-0.4046,-0.398,-0.395,-0.3889,-0.3839,-0.3746,-0.3699,-0.3641,-0.3631,-0.3608,-0.3622,-0.3632,-0.3629,-0.3631,-0.3627,-0.3606,-0.3605,-0.3605,-0.3605,0,-0.434,-0.4322,-0.4271,-0.4212,-0.417,-0.4122,-0.4074,-0.4049,-0.3999,-0.3959,-0.3899,-0.386,-0.3783,-0.3723,-0.366,-0.3624,-0.3606,-0.3601,-0.3591,-0.36,-0.3617,-0.3606,-0.367,-0.3603,-0.3603,-0.3603,-0.3603,-0.3603,-0.4314,-0.4278,-0.4222,-0.4167,-0.4126,-0.4082,-0.4043,-0.4004,-0.3953,-0.3887,-0.3866,-0.3803,-0.3748,-0.3662,-0.3626,-0.3576,-0.3577,-0.3563,-0.3559,-0.3556,-0.3556,-0.3626,-0.3565,-0.3565,-0.3565,-0.3565,-0.3565,0,-0.4266,-0.4229,-0.4178,-0.4111,-0.4067,-0.4055,-0.4001,-0.3965,-0.391,-0.3861,-0.3812,-0.3743,-0.3684,-0.3634,-0.3573,-0.3543,-0.3533,-0.3528,-0.3529,-0.3521,-0.356,-0.3574,-0.3537,-0.3537,-0.3537,-0.3537,-0.3537,-0.3537,-0.4236,-0.4174,-0.4149,-0.4066,-0.403,-0.3969,-0.3939,-0.3897,-0.3858,-0.3782,-0.3733,-0.3701,-0.3651,-0.3586,-0.3532,-0.3518,-0.3497,-0.3494,-0.3478,-0.3515,-0.3519,-0.3522,-0.3534,-0.349,-0.349,-0.3443,-0.3443,-0.3443]},{"header":{"parameterUnit":"m.s-1","parameterCategory":1,"la1":30.2991,"la2":30.254,"lo1":-89.0895,"lo2":-89.0444,"dy":0.0017,"dx":0.0017,"nx":28,"ny":28,"refTime":"2025-05-27T09:00:00:Z","depth":0,"parameterNumber":3,"parameterNumberName":"V-component_of_WINDS"},"data":[0,0,0,0,0,0,0,0,0,0,0,0,0,0,0,0,0,0,0,0,0,0,0,0,0,0,0,0,0,0,0,0,0,0,0,0,0,0,0,0,0,0,0,0,0,0,0,0,0,0,0,0,0,0,0,0,0,0,4.5951,4.595,0,4.5922,4.5921,4.5921,4.5856,4.5855,4.5854,4.5853,4.5825,4.5825,4.5826,0,0,0,0,0,0,0,0,0,0,0,0,0,4.5953,4.5953,4.5951,4.595,4.595,4.5922,4.5921,4.5921,4.5857,4.5855,4.5853,4.5852,4.5825,4.5825,4.5826,0,0,0,0,0,0,0,0,0,0,0,0,0,4.5941,4.5953,4.5951,4.5915,4.5911,4.5922,4.5921,4.5921,4.5857,4.5855,4.5853,4.5851,4.5825,4.5825,4.5826,4.5871,0,0,4.5828,4.5829,0,0,0,0,0,0,0,0,4.5942,4.5941,4.592,4.5917,4.5913,4.5891,4.5912,4.5904,4.5858,4.5878,4.5853,4.585,4.5849,4.5847,4.5846,4.5869,4.5868,4.5828,4.5829,4.5829,4.5829,0,0,0,0,0,0,0,4.5943,4.5942,4.5939,4.592,4.5916,4.59,4.5897,4.591,4.5875,4.5876,4.5871,4.5868,4.5846,4.5846,4.5845,4.5868,4.5828,4.5829,4.583,4.583,4.5927,4.5929,0,0,0,0,0,0,4.5948,4.5943,4.594,4.5938,4.5923,4.5902,4.5898,4.59,4.5874,4.5868,4.587,4.5865,4.5845,4.5844,4.5844,4.5894,4.5829,4.583,4.583,4.5925,4.5927,4.5929,0,0,0,0,0,0,4.5949,4.5949,4.5941,4.5939,4.5937,4.5904,4.5907,4.59,4.59,4.587,4.5864,4.5876,4.5844,4.5843,4.5864,4.5893,4.583,4.5831,4.5922,4.5925,4.5928,4.5996,0,0,0,0,0,0,4.5949,4.5949,4.5965,4.594,4.5938,4.5962,4.5909,4.5901,4.5901,4.5895,4.5874,4.5868,4.5842,4.5864,4.5865,4.5893,4.5832,4.5919,4.5924,4.5927,4.5991,4.6001,4.601,0,0,0,0,0,4.5949,4.5986,4.5966,4.5966,4.5957,4.5964,4.5962,4.5931,4.5903,4.592,4.5901,4.5869,4.589,4.5866,4.5868,4.5896,4.5917,4.5922,4.5927,4.5987,4.5999,4.601,0,0,0,0,0,0,4.6015,4.5982,4.596,4.5989,4.598,4.5953,4.5972,4.5945,4.5943,4.5937,4.5899,4.5895,4.5922,4.5911,4.5886,4.5938,4.5898,4.5904,4.5944,4.5955,4.5964,4.5966,4.5832,0,0,0,0,0,4.6033,4.6041,4.6012,4.604,4.6037,4.6006,4.6007,4.5984,4.5973,4.5969,4.5951,4.5942,4.5947,4.595,4.5953,4.599,4.5985,4.601,4.6019,4.6027,4.6032,4.6051,4.6062,4.5945,4.5945,4.5945,0,0,4.6071,4.6053,4.6061,4.6053,4.6043,4.6053,4.6003,4.6015,4.6022,4.5971,4.599,4.5977,4.5965,4.5994,4.6006,4.5986,4.6063,4.6033,4.6039,4.604,4.6057,4.6068,4.6078,4.5948,4.5948,4.5947,0,0,4.6143,4.6131,4.6154,4.6145,4.613,4.6109,4.6115,4.6092,4.6081,4.61,4.6062,4.607,4.6078,4.6071,4.6068,4.614,4.6111,4.6142,4.619,4.6209,4.6218,4.6226,4.6252,4.6262,4.6147,4.6147,4.6147,0,4.6192,4.6204,4.6169,4.6184,4.6182,4.6136,4.6159,4.6152,4.6139,4.614,4.6117,4.6126,4.6115,4.6142,4.616,4.6159,4.6165,4.6143,4.622,4.6227,4.6234,4.6258,4.6268,4.6151,4.615,4.615,4.6149,0,4.6264,4.6273,4.6294,4.6282,4.6282,4.6301,4.627,4.6275,4.6252,4.6234,4.6254,4.6239,4.6237,4.6242,4.622,4.6267,4.6255,4.6227,4.6186,4.625,4.6272,4.6281,4.6156,4.6155,4.6154,4.6153,0,0,4.6377,4.6346,4.6354,4.6348,4.6329,4.6336,4.6353,4.6351,4.6357,4.635,4.6364,4.6372,4.6346,4.6343,4.632,4.6337,4.6395,4.6307,4.6306,4.6324,4.6446,4.6467,4.6478,4.6376,4.6377,4.6378,4.6447,0,4.6445,4.6472,4.6442,4.6475,4.6484,4.6441,4.6456,4.6446,4.643,4.6436,4.6418,4.6424,4.6389,4.6388,4.6402,4.6385,4.6419,4.6379,4.6389,4.639,4.6393,4.649,4.6512,4.6578,4.6455,4.6457,4.6458,0,4.6528,4.6524,4.6559,4.6538,4.654,4.6554,4.655,4.6556,4.6545,4.6532,4.6529,4.6501,4.6517,4.6478,4.6501,4.6475,4.6477,4.6469,4.6471,4.647,4.6427,4.6492,4.6598,4.6608,4.6471,4.647,4.6469,0,4.6607,4.6611,4.6632,4.6628,4.6604,4.6615,4.6606,4.6593,4.6594,4.6591,4.6591,4.6591,4.6591,4.6591,4.6564,4.6538,4.659,4.6549,4.6581,4.6581,4.6593,4.6593,4.6701,4.6595,4.6595,4.6595,4.6595,0,4.6686,4.6709,4.6667,4.668,4.6705,4.667,4.6696,4.6682,4.6671,4.6681,4.6644,4.6655,4.6618,4.6626,4.6605,4.6627,4.6627,4.6617,4.6612,4.6621,4.6622,4.6621,4.6616,4.6597,4.6597,4.6596,4.6596,0,4.6778,4.6751,4.6771,4.6747,4.6741,4.6761,4.674,4.6752,4.6734,4.6747,4.6748,4.672,4.6726,4.6699,4.6701,4.6687,4.6721,4.6707,4.6724,4.672,4.6753,4.6751,4.6865,4.6878,4.6764,4.6765,4.6766,0,4.683,4.6847,4.6824,4.6828,4.682,4.6827,4.6828,4.6795,4.6798,4.6787,4.68,4.6803,4.6804,4.6817,4.6797,4.6798,4.6785,4.6825,4.6785,4.6793,4.6785,4.6785,4.6786,4.6833,4.6834,4.6835,4.6836,0,4.6926,4.6911,4.6914,4.6912,4.6914,4.691,4.6905,4.6911,4.6875,4.688,4.6886,4.6887,4.6889,4.6893,4.689,4.6882,4.6854,4.6849,4.6856,4.6866,4.6875,4.6871,4.6747,4.6847,4.6845,4.6845,4.6844,4.6844,4.6999,4.7012,4.6998,4.7002,4.6995,4.699,4.7,4.6983,4.6987,4.6986,4.6966,4.6976,4.6965,4.6959,4.6953,4.6961,4.6942,4.6953,4.6956,4.6959,4.6965,4.6874,4.6961,4.696,4.696,4.696,4.6959,0,4.7093,4.7082,4.7086,4.7079,4.7083,4.7055,4.7048,4.7053,4.7062,4.7054,4.7055,4.7063,4.7067,4.7047,4.7049,4.7059,4.7046,4.7061,4.7059,4.7058,4.6981,4.6975,4.7071,4.7071,4.7071,4.7071,4.7071,4.7071,4.7142,4.7162,4.7147,4.7163,4.7152,4.7161,4.716,4.7156,4.7149,4.7159,4.7162,4.7149,4.7137,4.7137,4.714,4.7134,4.7136,4.7155,4.7145,4.7074,4.7063,4.7053,4.7047,4.7156,4.7156,4.7221,4.7222,4.7222]}]]